Location: Newark
(42.8481°N, 0.4872°E)
Time: 17:04:22
(UTC+00:00)

Vanguard 2 - Pass Details

Date: 04 November 2020
Orbit: 554 x 2937 km, 32.9° (Epoch: 27 November)

Event Time Altitude Azimuth Distance (km) Brightness Sun altitude
Rises 15:48:11 0° 202° (SSW) 3,822 12.0 8.7°
Reaches altitude 10° 15:51:14 10° 186° (S) 3,189 11.3 8.3°
Maximum altitude 15:57:11 22° 139° (SE) 2,981 10.5 7.3°
Drops below altitude 10° 16:05:24 10° 96° (E) 4,580 11.0 6.0°
Sets 16:10:58 0° 84° (E) 6,021 11.5 5.1°
